Temp
-6 -7 -8 -8 -8 -8 -9 -9 -9 -9 -9 -10 -10 -11 -11 -11 -12 -12 -13 -13 -14 -14 -15 -15 -15 -15 -16 -16 -16 -16 -16 -16 -15 -16 -15 -14 -14 -13 -13 -12 -11 -10 -8
-7 -8 -8 -8 -8 -9 -9 -9 -9 -9 -10 -10 -11 -11 -11 -11 -12 -12 -13 -14 -14 -14 -14 -15 -15 -15 -16 -16 -16 -16 -16 -16 -16 -16 -15 -14 -13 -13 -13 -12 -11 -10 -8
-8 -9 -8 -9 -9 -9 -9 -9 -10 -10 -10 -10 -11 -11 -11 -11 -12 -13 -14 -14 -14 -14 -15 -15 -16 -16 -16 -16 -17 -17 -17 -16 -16 -16 -15 -14 -13 -13 -13 -11 -11 -10 -8
-9 -9 -9 -9 -9 -9 -10 -10 -10 -10 -10 -11 -11 -11 -11 -12 -12 -13 -14 -14 -14 -15 -15 -15 -16 -16 -16 -16 -16 -17 -17 -17 -16 -16 -15 -15 -14 -13 -13 -12 -11 -10 -8
-9 -9 -9 -10 -10 -10 -10 -10 -10 -11 -11 -11 -11 -12 -12 -12 -13 -13 -13 -14 -14 -15 -15 -16 -16 -16 -17 -17 -17 -17 -17 -17 -17 -16 -16 -15 -14 -13 -12 -12 -11 -10 -8
-9 -9 -10 -10 -10 -10 -10 -10 -11 -11 -11 -11 -11 -12 -12 -12 -13 -13 -14 -14 -15 -15 -15 -16 -16 -16 -17 -17 -17 -17 -17 -17 -17 -16 -16 -16 -14 -14 -12 -12 -11 -9 -8
-9 -10 -10 -10 -10 -10 -10 -11 -11 -11 -11 -11 -12 -12 -12 -13 -13 -14 -14 -15 -15 -15 -16 -16 -16 -16 -17 -17 -17 -17 -17 -17 -17 -16 -16 -16 -15 -14 -13 -12 -10 -9 -8
-9 -10 -10 -10 -10 -10 -11 -11 -11 -11 -11 -12 -12 -12 -12 -13 -13 -14 -14 -15 -15 -16 -16 -16 -16 -17 -17 -17 -17 -17 -17 -17 -17 -16 -16 -15 -15 -14 -13 -12 -10 -9 -8
-10 -10 -10 -10 -10 -11 -11 -11 -11 -11 -12 -12 -12 -13 -13 -13 -13 -13 -14 -14 -15 -16 -16 -16 -16 -17 -17 -17 -17 -17 -17 -17 -17 -16 -16 -15 -14 -13 -12 -11 -10 -9 -8
-10 -10 -10 -10 -11 -11 -11 -11 -11 -12 -12 -13 -13 -13 -13 -13 -13 -13 -14 -14 -15 -15 -16 -16 -16 -17 -17 -17 -17 -17 -16 -16 -16 -16 -15 -15 -14 -13 -12 -11 -10 -9 -8
-10 -10 -10 -11 -11 -11 -11 -11 -12 -12 -13 -13 -13 -13 -13 -13 -13 -13 -14 -14 -15 -15 -16 -16 -16 -16 -16 -16 -16 -16 -16 -16 -16 -16 -15 -15 -14 -13 -12 -11 -10 -9 -8
-10 -10 -11 -11 -11 -11 -11 -12 -12 -12 -13 -13 -13 -13 -14 -14 -14 -14 -14 -14 -15 -15 -15 -16 -16 -16 -16 -16 -16 -16 -16 -16 -15 -15 -15 -15 -14 -13 -12 -11 -10 -8 -8
-10 -10 -11 -11 -11 -11 -12 -12 -12 -12 -12 -13 -13 -13 -13 -13 -14 -14 -14 -15 -15 -15 -15 -16 -16 -16 -16 -16 -16 -16 -15 -15 -15 -15 -14 -14 -14 -12 -11 -11 -10 -9 -7
-11 -11 -11 -11 -11 -11 -12 -12 -12 -12 -13 -13 -13 -13 -13 -13 -13 -13 -14 -15 -15 -15 -16 -16 -16 -16 -16 -16 -15 -15 -15 -15 -14 -14 -13 -13 -13 -12 -11 -10 -9 -8 -7
-11 -11 -11 -11 -11 -11 -12 -12 -12 -12 -12 -13 -13 -13 -13 -13 -13 -14 -14 -14 -15 -15 -15 -15 -15 -15 -15 -15 -15 -15 -15 -14 -14 -13 -13 -12 -12 -12 -11 -10 -9 -8 -7
-11 -11 -11 -11 -11 -12 -12 -12 -12 -13 -13 -13 -13 -14 -14 -14 -14 -14 -14 -15 -15 -15 -15 -15 -15 -15 -15 -15 -15 -15 -14 -14 -13 -13 -12 -12 -12 -12 -11 -10 -9 -8 -7
-11 -11 -11 -11 -12 -12 -12 -12 -13 -13 -13 -13 -13 -14 -14 -14 -14 -14 -14 -15 -15 -15 -14 -15 -15 -15 -15 -15 -14 -14 -13 -13 -13 -12 -12 -12 -11 -11 -11 -10 -9 -8 -7
-11 -11 -11 -11 -12 -12 -12 -12 -12 -13 -13 -13 -13 -13 -14 -14 -14 -14 -14 -14 -14 -14 -14 -14 -15 -15 -14 -14 -14 -14 -13 -13 -12 -12 -11 -11 -11 -11 -11 -10 -9 -8 -7
-11 -11 -11 -11 -12 -12 -12 -12 -13 -13 -13 -13 -13 -13 -14 -14 -14 -14 -14 -13 -13 -14 -14 -15 -15 -15 -14 -14 -14 -13 -13 -12 -12 -11 -11 -11 -11 -11 -10 -10 -9 -9 -8
-11 -11 -11 -12 -12 -12 -12 -12 -12 -13 -13 -13 -13 -13 -13 -13 -13 -13 -13 -13 -14 -14 -14 -14 -14 -15 -14 -14 -14 -13 -13 -13 -12 -11 -11 -10 -10 -10 -10 -10 -9 -9 -8
-11 -11 -12 -12 -12 -12 -12 -12 -12 -12 -13 -13 -13 -13 -13 -13 -13 -13 -13 -13 -13 -13 -13 -13 -14 -14 -14 -14 -14 -13 -13 -13 -12 -11 -11 -10 -10 -10 -10 -10 -9 -9 -8
-11 -12 -12 -12 -12 -12 -12 -12 -12 -12 -12 -13 -13 -13 -13 -13 -13 -13 -13 -13 -13 -13 -13 -13 -13 -13 -13 -13 -14 -13 -13 -13 -13 -12 -11 -11 -10 -10 -9 -9 -9 -9 -9
-11 -12 -12 -12 -12 -12 -12 -12 -12 -12 -12 -12 -12 -13 -13 -13 -13 -13 -13 -13 -13 -13 -13 -13 -13 -13 -13 -13 -13 -13 -13 -13 -13 -12 -12 -12 -11 -10 -10 -9 -9 -9 -9
-11 -12 -12 -12 -12 -12 -12 -12 -12 -12 -12 -12 -12 -12 -12 -12 -13 -13 -13 -13 -13 -13 -13 -13 -13 -13 -13 -13 -13 -13 -13 -13 -13 -13 -12 -12 -12 -11 -11 -10 -10 -9 -8
-11 -12 -12 -12 -12 -12 -12 -12 -12 -12 -12 -12 -12 -12 -12 -12 -12 -12 -13 -13 -13 -13 -13 -13 -13 -13 -13 -13 -12 -12 -12 -12 -13 -13 -13 -12 -12 -12 -11 -11 -10 -10 -9
-12 -12 -12 -12 -12 -12 -12 -12 -12 -12 -12 -12 -12 -12 -12 -12 -12 -12 -12 -12 -13 -12 -13 -13 -13 -13 -13 -13 -12 -12 -12 -12 -12 -12 -12 -12 -12 -12 -12 -12 -11 -11 -10
Height
3092 3087 3082 3077 3073 3068 3063 3057 3052 3046 3039 3033 3025 3019 3014 3007 3000 2992 2985 2979 2972 2966 2959 2954 2949 2943 2938 2934 2930 2926 2923 2921 2919 2920 2918 2919 2921 2924 2925 2930 2933 2936 2937
3089 3084 3080 3076 3071 3066 3061 3056 3050 3043 3037 3029 3022 3017 3011 3004 2997 2989 2982 2975 2968 2961 2955 2949 2943 2938 2932 2929 2925 2921 2919 2917 2915 2915 2914 2915 2916 2919 2921 2926 2928 2930 2932
3087 3083 3078 3075 3070 3065 3059 3054 3048 3042 3034 3027 3020 3015 3008 3001 2994 2987 2979 2971 2963 2956 2950 2944 2938 2932 2928 2924 2920 2917 2914 2912 2911 2911 2911 2911 2912 2915 2918 2923 2925 2927 2930
3085 3081 3077 3073 3069 3063 3058 3052 3047 3040 3033 3026 3019 3012 3005 2998 2991 2984 2976 2968 2960 2953 2946 2938 2932 2927 2923 2919 2916 2913 2911 2909 2907 2907 2908 2908 2909 2913 2915 2920 2923 2925 2928
3083 3079 3075 3072 3067 3062 3057 3052 3045 3038 3032 3025 3017 3010 3002 2995 2989 2981 2973 2964 2957 2950 2942 2935 2929 2923 2919 2915 2912 2910 2907 2905 2904 2904 2906 2906 2906 2909 2913 2916 2921 2925 2931
3081 3077 3075 3070 3066 3062 3057 3051 3044 3039 3032 3025 3016 3008 3001 2993 2986 2978 2969 2962 2954 2946 2939 2932 2926 2921 2916 2913 2910 2907 2905 2903 2901 2901 2903 2907 2907 2908 2912 2916 2920 2923 2928
3080 3077 3074 3070 3066 3062 3056 3050 3045 3039 3032 3024 3016 3007 2999 2992 2985 2977 2968 2959 2951 2944 2936 2930 2924 2919 2915 2911 2908 2905 2903 2901 2899 2898 2899 2903 2909 2908 2909 2914 2916 2920 2925
3080 3076 3073 3069 3066 3061 3055 3050 3045 3038 3031 3023 3015 3007 2999 2991 2984 2976 2968 2959 2950 2942 2935 2928 2923 2918 2914 2910 2907 2904 2902 2900 2898 2897 2896 2899 2902 2906 2910 2915 2919 2922 2928
3079 3076 3073 3069 3065 3060 3056 3051 3044 3038 3031 3022 3014 3007 3000 2992 2984 2977 2968 2959 2950 2942 2934 2928 2923 2918 2914 2910 2908 2905 2902 2900 2897 2895 2896 2897 2900 2904 2909 2913 2919 2924 2930
3079 3076 3073 3069 3065 3060 3056 3050 3044 3037 3030 3022 3015 3008 3001 2993 2985 2977 2968 2960 2951 2943 2935 2929 2924 2919 2915 2912 2909 2906 2903 2900 2897 2896 2894 2896 2899 2903 2907 2912 2917 2922 2929
3079 3076 3073 3070 3065 3061 3056 3051 3045 3038 3031 3024 3017 3010 3003 2995 2986 2978 2970 2961 2952 2943 2936 2930 2925 2921 2917 2913 2910 2907 2904 2901 2899 2898 2897 2897 2899 2904 2908 2914 2919 2924 2930
3079 3076 3073 3070 3066 3061 3056 3051 3046 3040 3034 3027 3020 3013 3006 2998 2989 2981 2971 2961 2953 2946 2938 2932 2927 2923 2919 2915 2912 2909 2906 2903 2902 2901 2902 2903 2905 2908 2911 2915 2919 2925 2934
3079 3077 3073 3070 3066 3062 3057 3052 3047 3041 3035 3029 3022 3015 3008 3001 2993 2984 2973 2965 2958 2948 2941 2935 2931 2927 2923 2919 2916 2913 2910 2907 2906 2906 2907 2909 2910 2913 2916 2921 2925 2932 2938
3080 3077 3073 3070 3066 3062 3057 3053 3048 3042 3037 3030 3023 3017 3010 3003 2995 2986 2978 2970 2963 2954 2946 2940 2935 2931 2926 2923 2920 2918 2915 2912 2910 2910 2912 2914 2916 2919 2922 2925 2930 2935 2941
3080 3077 3074 3071 3067 3063 3059 3054 3048 3043 3037 3031 3024 3018 3012 3005 2996 2989 2981 2974 2967 2958 2951 2946 2941 2936 2932 2928 2925 2923 2921 2919 2917 2917 2918 2921 2923 2925 2927 2930 2935 2939 2944
3080 3077 3075 3072 3068 3064 3059 3054 3050 3045 3039 3033 3027 3021 3014 3008 3001 2995 2987 2981 2974 2966 2959 2951 2946 2941 2937 2934 2931 2929 2927 2925 2925 2925 2926 2927 2929 2932 2934 2936 2939 2944 2950
3081 3078 3076 3073 3070 3066 3061 3057 3052 3046 3041 3036 3030 3025 3019 3013 3007 3000 2993 2987 2981 2974 2966 2957 2952 2947 2943 2940 2937 2935 2933 2933 2932 2933 2934 2936 2937 2938 2940 2942 2945 2949 2954
3082 3079 3077 3074 3071 3067 3063 3059 3054 3049 3044 3039 3034 3028 3023 3018 3011 3005 3000 2994 2989 2981 2971 2964 2958 2954 2950 2947 2945 2942 2941 2940 2940 2940 2940 2941 2943 2945 2947 2949 2952 2955 2958
3082 3080 3078 3076 3073 3069 3065 3061 3056 3051 3047 3041 3036 3032 3027 3021 3016 3010 3005 2999 2992 2985 2979 2973 2967 2962 2958 2954 2952 2950 2948 2947 2947 2947 2947 2947 2949 2951 2952 2954 2958 2962 2966
3083 3081 3080 3077 3074 3071 3068 3064 3059 3055 3050 3045 3040 3036 3031 3027 3022 3016 3010 3004 2998 2992 2987 2982 2976 2971 2966 2962 2959 2957 2955 2954 2954 2954 2954 2954 2954 2956 2958 2960 2963 2966 2969
3084 3082 3080 3078 3076 3073 3070 3066 3062 3058 3053 3049 3044 3039 3034 3029 3025 3020 3015 3009 3005 3000 2995 2989 2985 2980 2975 2971 2967 2964 2963 2961 2960 2960 2960 2961 2962 2962 2964 2966 2969 2971 2974
3084 3083 3081 3079 3077 3075 3072 3068 3065 3061 3057 3052 3048 3043 3038 3033 3029 3024 3020 3015 3010 3006 3001 2997 2993 2989 2985 2981 2976 2973 2970 2968 2967 2966 2965 2965 2966 2968 2969 2971 2973 2976 2980
3085 3083 3082 3080 3078 3076 3073 3070 3067 3064 3060 3056 3051 3047 3042 3038 3033 3029 3025 3021 3016 3012 3008 3004 3000 2997 2993 2990 2986 2982 2979 2976 2974 2973 2972 2971 2971 2973 2974 2975 2976 2979 2981
3085 3084 3082 3081 3079 3077 3074 3072 3069 3066 3062 3058 3054 3050 3046 3042 3038 3033 3029 3025 3021 3018 3014 3011 3007 3004 3001 2998 2995 2991 2988 2985 2982 2980 2979 2979 2978 2978 2979 2980 2982 2983 2984
3085 3083 3082 3081 3079 3077 3075 3072 3070 3067 3064 3060 3057 3053 3049 3045 3041 3038 3034 3030 3026 3023 3020 3016 3013 3010 3008 3005 3002 3000 2996 2994 2992 2989 2987 2985 2984 2983 2983 2983 2984 2985 2987
3084 3083 3081 3080 3078 3077 3075 3072 3070 3067 3064 3061 3058 3055 3051 3048 3045 3041 3038 3034 3030 3027 3024 3021 3018 3015 3013 3011 3009 3006 3004 3002 2999 2997 2996 2994 2992 2990 2988 2988 2989 2990 2991
Wind_Speed
27 29 27 28 26 25 25 27 28 30 32 33 29 25 26 30 34 33 32 31 30 29 29 28 27 27 26 25 24 21 19 19 17 10 14 15 13 10 11 11 12 13 18
27 25 26 25 24 24 25 26 28 30 33 33 29 25 26 30 33 32 31 31 29 29 29 28 26 26 25 24 21 18 18 17 16 10 12 12 12 11 11 10 12 13 15
23 24 24 22 22 23 24 26 28 30 33 33 29 26 26 29 32 31 31 30 31 32 32 30 27 25 24 21 17 16 16 16 14 10 9 10 12 11 12 12 12 13 14
22 22 20 20 21 22 24 26 28 30 32 33 31 28 27 29 31 32 31 32 33 34 34 31 27 24 21 18 16 14 13 12 11 8 7 10 12 12 13 14 13 14 15
21 19 19 20 21 23 24 26 28 30 31 33 33 29 28 29 30 32 33 33 33 33 35 30 25 22 19 16 15 13 11 9 7 5 5 9 11 13 15 16 15 15 18
19 18 19 21 21 23 24 26 28 29 31 32 34 33 30 29 30 32 34 33 33 34 31 26 22 19 16 14 14 12 9 7 5 3 5 7 11 14 17 17 17 18 21
18 17 19 20 21 22 24 26 26 28 30 32 34 36 34 31 31 32 33 32 34 33 29 24 19 17 15 14 12 10 8 6 4 3 5 6 11 15 17 17 18 20 23
16 18 20 21 21 22 24 25 26 27 30 31 34 37 38 34 32 32 32 32 34 31 27 22 18 16 15 13 11 10 8 6 4 3 4 6 10 15 18 19 20 21 26
16 18 19 19 21 22 23 25 26 28 30 33 36 37 38 36 32 31 34 33 33 29 24 21 18 16 14 13 11 11 9 7 4 2 2 6 10 15 18 20 21 24 29
15 16 17 19 21 23 24 26 28 29 32 34 34 35 37 37 34 32 36 34 34 30 24 20 17 15 14 11 10 10 9 7 3 0 4 8 11 15 19 22 24 26 31
14 15 17 19 21 23 24 25 27 28 30 31 32 34 35 37 37 34 35 36 37 33 25 20 17 15 15 14 13 13 13 12 8 7 10 12 14 17 21 23 24 28 32
13 16 18 20 21 22 24 25 26 27 27 28 29 31 33 34 36 36 35 39 38 34 27 21 19 19 17 16 15 15 13 12 11 13 15 16 16 18 21 22 24 27 31
14 16 18 20 21 22 22 23 25 26 27 27 28 30 32 33 34 36 37 39 37 35 28 22 20 18 17 16 15 14 14 13 13 16 19 19 18 19 21 22 24 27 31
14 16 19 20 20 22 23 23 24 25 26 28 29 31 33 34 35 37 38 38 36 35 27 22 21 19 18 17 16 16 18 19 17 18 20 20 20 20 20 21 23 26 30
14 17 18 19 20 21 22 23 24 25 26 29 32 33 34 34 37 39 39 39 39 36 29 22 19 18 18 18 17 17 17 21 21 21 22 23 23 22 21 21 21 24 28
15 16 17 18 20 21 22 24 23 24 26 28 30 32 33 34 36 37 37 36 36 35 32 27 24 23 22 21 19 19 20 22 22 21 22 21 22 21 22 23 23 23 25
14 15 16 18 20 21 22 22 23 25 25 26 27 29 31 32 33 35 35 34 33 36 34 32 29 26 25 24 23 22 22 22 21 20 21 21 20 20 20 21 22 23 25
13 14 15 17 19 20 22 23 24 23 24 25 26 28 29 30 31 32 32 31 31 36 36 37 34 30 26 24 23 22 21 19 19 19 19 20 19 17 18 19 19 21 24
12 13 14 16 17 20 22 24 25 26 25 26 26 26 27 29 30 29 30 31 33 34 40 39 37 34 29 26 24 22 20 19 18 18 18 18 18 18 17 18 18 19 22
11 12 12 14 16 18 21 23 25 26 27 27 26 25 25 25 25 27 29 31 31 32 34 39 39 38 35 28 25 23 21 18 16 15 17 18 18 18 18 18 17 17 21
10 11 12 13 15 16 19 21 23 25 27 28 28 27 27 27 27 28 28 29 30 30 30 31 34 35 38 34 28 24 21 18 16 14 14 15 17 18 18 18 18 17 19
10 10 11 12 13 15 17 19 21 23 25 27 28 29 28 27 27 27 27 27 28 29 29 29 30 31 32 33 34 27 23 20 17 14 13 13 14 15 16 17 18 18 18
10 10 10 11 13 14 15 17 19 21 23 25 26 27 28 28 26 26 25 26 26 26 27 27 27 28 29 29 30 32 27 22 19 16 14 13 11 11 13 14 15 16 18
10 10 10 11 12 14 15 16 17 18 20 21 23 24 25 27 27 25 25 24 25 24 25 25 24 24 25 26 26 27 29 30 24 19 17 15 13 11 10 11 13 14 15
10 10 11 11 12 13 14 15 16 17 17 19 20 22 23 24 25 25 24 23 23 23 23 23 23 22 22 23 23 24 24 24 24 23 23 19 15 13 12 9 9 11 14
10 9 10 10 11 12 13 14 15 16 17 17 18 19 20 21 21 22 23 23 21 21 21 21 21 21 20 19 19 21 21 21 21 20 21 20 20 18 13 12 10 8 10
Wind_Direction
328 337 348 343 340 341 344 346 344 345 344 342 343 341 342 344 343 341 338 338 334 333 331 326 322 318 316 318 318 312 306 302 301 297 267 258 255 228 221 209 198 198 198
333 345 348 340 340 343 345 346 347 347 345 346 345 341 343 346 345 345 343 339 341 340 335 330 326 320 319 320 319 310 305 301 298 292 262 254 241 219 218 197 191 193 194
342 353 344 340 343 346 348 349 349 349 349 349 343 341 342 344 348 349 347 347 347 342 337 333 327 323 321 321 318 310 305 302 297 286 255 244 229 212 206 190 189 186 185
350 345 342 345 346 350 351 352 350 351 353 352 348 345 343 345 348 350 349 349 347 341 338 335 333 328 326 325 325 321 314 306 296 281 251 232 219 207 196 189 186 181 176
345 345 347 347 352 354 353 352 353 354 353 355 356 351 345 345 347 349 351 348 345 341 340 337 336 334 334 332 329 329 326 318 307 283 242 223 212 204 190 191 184 177 170
346 349 350 353 355 354 353 354 355 353 354 358 360 357 351 348 350 350 350 348 347 343 341 341 341 341 339 338 335 333 330 330 326 283 236 214 200 197 192 189 182 176 171
351 352 355 356 356 354 356 358 354 354 357 0 2 2 358 355 353 355 351 352 350 347 346 347 349 348 350 348 338 337 333 333 328 284 243 212 189 190 191 184 177 171 165
352 356 358 357 355 356 358 356 355 356 0 3 5 5 2 360 359 358 357 357 355 353 351 355 359 360 358 356 356 353 351 345 328 282 245 200 189 187 185 178 173 169 162
357 358 358 356 357 359 358 357 358 1 3 5 8 6 5 4 2 0 2 2 1 1 2 4 7 9 12 14 22 29 18 5 348 303 206 183 186 184 178 173 167 166 161
357 358 357 358 360 0 359 0 1 3 5 7 6 6 7 7 5 4 5 7 8 8 8 12 14 19 22 29 34 33 30 22 16 57 159 164 168 170 170 167 163 162 160
356 357 357 359 0 1 2 3 4 6 7 5 5 7 8 9 9 8 9 10 12 12 14 17 23 26 26 28 30 29 31 39 61 103 124 138 150 157 161 162 161 161 160
357 356 356 359 360 0 2 4 6 7 8 7 7 9 12 11 12 12 13 15 12 14 17 22 27 26 25 31 37 34 33 42 73 101 114 120 133 145 153 155 154 159 162
355 356 358 359 359 0 2 4 6 7 9 10 11 12 14 14 15 17 18 16 14 16 18 23 27 27 29 41 47 44 46 61 83 103 111 114 120 133 141 145 150 157 163
354 358 1 359 0 1 3 6 8 8 9 12 15 15 15 14 16 19 21 21 19 20 22 26 27 29 34 46 51 51 60 72 85 100 107 109 113 122 129 137 147 154 162
357 1 1 360 3 4 6 8 9 9 12 16 15 15 15 15 18 18 19 20 23 23 26 32 35 40 47 53 55 55 66 72 84 96 104 109 113 115 120 127 138 151 160
360 3 1 3 7 9 9 10 14 13 13 17 18 17 16 17 18 18 21 21 21 26 30 34 39 44 51 55 57 59 66 73 82 95 103 110 114 117 120 124 131 142 154
2 4 4 8 11 13 14 16 16 13 17 18 20 20 18 18 20 20 20 22 27 27 31 37 40 43 46 51 54 57 64 71 80 93 103 110 115 121 123 125 130 139 148
2 5 8 13 15 18 20 20 20 20 20 20 21 22 21 21 22 23 22 24 28 33 33 38 40 42 47 50 54 56 60 70 81 90 100 106 110 117 125 125 128 138 146
0 4 10 15 18 20 22 23 24 24 22 22 21 22 21 22 22 21 25 26 30 35 40 42 40 42 43 47 52 56 60 66 75 88 94 100 107 111 118 124 127 135 145
356 1 10 15 18 21 23 25 27 27 27 26 24 24 25 26 25 25 27 30 32 35 39 41 41 42 44 46 50 53 55 61 71 82 93 99 101 108 112 117 124 129 141
352 359 7 13 16 19 21 24 26 28 27 27 27 24 25 25 26 26 27 30 34 36 39 41 40 42 43 45 48 54 57 58 68 82 93 103 106 109 113 116 118 121 134
347 356 3 8 12 15 18 20 22 25 26 26 27 26 26 26 25 27 26 29 30 35 37 40 42 43 44 42 46 50 55 59 61 71 86 98 108 115 117 120 123 124 126
344 353 359 2 6 9 13 16 17 20 21 23 24 25 26 26 25 27 27 27 30 32 36 38 40 43 45 46 45 49 53 57 62 66 74 87 97 113 123 126 128 131 132
344 350 354 356 358 2 5 7 9 12 15 17 18 21 24 26 26 26 27 27 28 31 33 37 39 42 45 48 48 49 52 53 57 61 68 74 81 94 112 128 139 142 144
350 349 350 351 352 355 359 0 2 4 8 12 12 13 17 22 23 26 26 27 27 29 31 33 37 40 42 47 50 51 52 54 59 63 62 66 71 76 87 103 133 149 153
352 344 342 345 348 350 352 353 354 355 358 2 5 7 8 12 18 21 25 27 27 28 29 32 34 36 39 43 47 50 54 54 55 61 65 65 66 67 73 84 99 126 158